Погода в Усть-Эгита

Россия / Республика Бурятия     52°19′57″N   110°36′37″E
темп.,
°C
ветер,
м/с
пор.,
м/с
влажн.,
%
обл.,
%
осадки,
мм/ч
давл.,
гПа
погр.,
м
27 октября, ср
ср2723:00−1зюз22805 0.0 102011
02:00−1зюз22825 0.0 102117
05:00−2зюз228334 0.0 102112
08:00−2ююз118156 0.0 102111
11:00+4ю1256100 0.0 1019279
14:00+8ююз1344100 0.0 1015449
17:00+4юв01605 0.0 101510
20:00+1сз11685 0.0 101710
28 октября, чт
чт2823:000з11706 0.0 101910
02:00−1зюз227416 0.0 102014
05:00−1з227798 0.0 102113
08:00−1юз1177100 0.0 102210
11:00+3з1159100 0.0 1020243
14:00+6сз1248100 0.0 1018381
17:00+3зюз1161100 0.0 101910
20:00+1з2269100 0.0 102210
29 октября, пт
пт2923:000сз2378100 0.0 102434
02:00−1з2287100 0.0 102723
05:00−3з2485100 0.0 102977
08:00−5з35705 0.0 1033138
11:00−1зсз44445 0.0 1033619
14:00+2зсз34335 0.0 1031976
17:00−1зюз22390 0.0 103210
20:00−3юз22420 0.0 103410
30 октября, сб
сб3023:00−4юз11430 0.0 103610
02:00−5ю11470 0.0 103610
05:00−6ююз11520 0.0 103610
08:00−6ю11545 0.0 103710
11:00−1ююз23375 0.0 1035375
14:00+4юз242727 0.0 1031674
17:000ююз1239100 0.0 103110
20:00−2ююз114286 0.0 103210
31 октября, вс
вс3123:00−3ю22465 0.0 103112
02:00−4ююв224978 0.0 103012
05:00−4ююв1150100 0.0 102911
08:00−3ююв1150100 0.0 102814
11:00+1юз233996 0.0 1026300
14:00+4з454030 0.0 1024839
17:000з2257100 0.0 102510
20:00−2зюз226453 0.0 102512